This is the latest recevied weather packets stored in our database for station/object KC8BSD. If no packets are shown the sender has not sent any weather packets the latest 1 day(s).
| Time | Temp. | Humidity | Pressure | Rain* | Wind** | Luminosity | Snow |
|---|---|---|---|---|---|---|---|
| 1777980508 | 12.78° C | 85% | 1004.7 hPa | 0 mm | 0.89 m/s, 28° | 29 W/m² | - |
| 1777980206 | 12.78° C | 86% | 1004.7 hPa | 0 mm | 0.45 m/s, 260° | 26 W/m² | - |
| 1777979902 | 12.78° C | 86% | 1004.5 hPa | 0 mm | 0 m/s | 22 W/m² | - |
| 1777979597 | 12.78° C | 86% | 1004.2 hPa | 0 mm | 0 m/s | 20 W/m² | - |
| 1777979294 | 12.78° C | 86% | 1004.2 hPa | 0 mm | 0 m/s | 23 W/m² | - |
| 1777978991 | 12.78° C | 86% | 1003.9 hPa | 0 mm | 1.34 m/s, 11° | 24 W/m² | - |
| 1777978688 | 12.78° C | 86% | 1004.1 hPa | 0 mm | 0 m/s | 18 W/m² | - |
| 1777978383 | 12.78° C | 87% | 1004 hPa | 0 mm | 0.89 m/s, 348° | 16 W/m² | - |
| 1777978080 | 12.78° C | 88% | 1003.9 hPa | 0 mm | 1.34 m/s, 66° | 12 W/m² | - |
| 1777977778 | 12.78° C | 89% | 1004 hPa | 0 mm | 0 m/s | 8 W/m² | - |
| 1777977473 | 12.78° C | 89% | 1003.9 hPa | 0 mm | 0.45 m/s, 48° | 5 W/m² | - |
| 1777977172 | 12.78° C | 89% | 1004 hPa | 0 mm | 1.34 m/s, 335° | 2 W/m² | - |
| 1777976869 | 12.22° C | 89% | 1003.8 hPa | 0 mm | 0.45 m/s, 257° | 0 W/m² | - |
| 1777976567 | 12.22° C | 89% | 1003.8 hPa | 0 mm | 0 m/s | 0 W/m² | - |
| 1777976266 | 12.78° C | 88% | 1003.7 hPa | 0 mm | 0 m/s | 0 W/m² | - |
| 1777975961 | 12.78° C | 88% | 1003.6 hPa | 0 mm | 0 m/s | 0 W/m² | - |
| 1777975658 | 12.78° C | 88% | 1003.5 hPa | 0 mm | 0 m/s | 0 W/m² | - |
| 1777975354 | 12.78° C | 87% | 1003.5 hPa | 0 mm | 0 m/s | 0 W/m² | - |
| 1777975050 | 12.78° C | 87% | 1003.6 hPa | 0 mm | 0 m/s | 0 W/m² | - |
| 1777974748 | 12.78° C | 87% | 1003.1 hPa | 0 mm | 0 m/s | 0 W/m² | - |
| 1777974443 | 12.78° C | 87% | 1003.5 hPa | 0 mm | 0 m/s | 0 W/m² | - |
| 1777974140 | 12.78° C | 87% | 1003.3 hPa | 0 mm | 0 m/s | 0 W/m² | - |
| 1777973836 | 13.33° C | 87% | 1003.1 hPa | 0 mm | 0 m/s | 0 W/m² | - |
| 1777973534 | 13.33° C | 87% | 1003.4 hPa | 0 mm | 0 m/s | 0 W/m² | - |
| 1777973230 | 13.33° C | 87% | 1003.2 hPa | 0 mm | 0 m/s | 0 W/m² | - |
* Rain latest hour (hover to see other rain measurements)
** Current wind speed in m/s (hover to see current wind gust speed)